This is the latest recevied weather packets stored in our database for station/object IZ8NVY-11. If no packets are shown the sender has not sent any weather packets the latest 10 day(s).
| Time | Temp. | Humidity | Pressure | Rain* | Wind** | Luminosity | Snow |
|---|---|---|---|---|---|---|---|
| 1777458761 | 23.89° C | 31% | 884.4 hPa | - | - | - | - |
| 1777455160 | 22.78° C | 33% | 884.4 hPa | - | - | - | - |
| 1777451559 | 23.89° C | 34% | 884.2 hPa | - | - | - | - |
| 1777447958 | 23.33° C | 32% | 883.9 hPa | - | - | - | - |
| 1777444358 | 21.11° C | 30% | 883.6 hPa | - | - | - | - |
| 1777440760 | 17.22° C | 32% | 883.5 hPa | - | - | - | - |
| 1777437156 | 16.11° C | 34% | 883.3 hPa | - | - | - | - |
| 1777433555 | 16.11° C | 37% | 883.1 hPa | - | - | - | - |
| 1777429957 | 15.56° C | 41% | 883.2 hPa | - | - | - | - |
| 1777426354 | 15.56° C | 40% | 883.1 hPa | - | - | - | - |
| 1777422753 | 16.11° C | 39% | 883.3 hPa | - | - | - | - |
| 1777419152 | 16.11° C | 38% | 883.5 hPa | - | - | - | - |
| 1777415551 | 16.67° C | 35% | 883.7 hPa | - | - | - | - |
| 1777411951 | 17.22° C | 20% | 883.8 hPa | - | - | - | - |
| 1777408350 | 17.78° C | 20% | 883.8 hPa | - | - | - | - |
| 1777404749 | 17.78° C | 20% | 883.8 hPa | - | - | - | - |
| 1777401148 | 18.33° C | 22% | 883.4 hPa | - | - | - | - |
| 1777397547 | 20° C | 27% | 883.4 hPa | - | - | - | - |
| 1777393947 | 22.22° C | 33% | 883.5 hPa | - | - | - | - |
| 1777390346 | 25.56° C | 31% | 883.4 hPa | - | - | - | - |
| 1777386745 | 25.56° C | 32% | 883.5 hPa | - | - | - | - |
| 1777383144 | 23.89° C | 36% | 883.9 hPa | - | - | - | - |
| 1777379544 | 23.33° C | 39% | 884.2 hPa | - | - | - | - |
| 1777375943 | 23.89° C | 46% | 884.3 hPa | - | - | - | - |
| 1777372344 | 22.78° C | 48% | 884.3 hPa | - | - | - | - |
* Rain since midnight (hover to see other rain measurements)
** Current wind speed in m/s (hover to see current wind gust speed)